Temperature
8 8 8 8 8 8 9 9 9 9 9 9 9 9 9 9 9 9 10 10 10 10 10 10 11 11 11 11 11 11 11 11 11 11 11 11 11 11 11 11 11 11 11
8 8 8 8 8 8 8 8 8 8 8 8 8 9 9 9 9 9 9 9 10 10 10 10 10 10 10 10 10 11 10 11 11 11 11 11 11 11 11 11 10 10 10
7 7 7 7 7 8 8 7 8 8 8 8 8 8 8 8 8 8 8 9 9 9 9 10 10 10 10 10 10 10 10 10 10 10 10 10 10 10 10 10 10 10 10
6 6 7 7 7 7 7 7 7 7 7 7 7 7 7 8 8 8 8 8 8 9 9 9 9 9 10 10 10 10 10 10 10 10 10 10 10 10 10 10 10 10 10
6 6 6 6 6 6 6 6 6 6 6 7 7 7 7 7 7 7 7 8 8 8 8 8 9 9 9 9 9 9 10 10 10 10 10 9 9 10 10 10 10 10 10
5 5 5 5 5 5 5 5 6 6 6 6 6 6 6 6 7 7 7 7 7 7 8 8 8 8 9 9 9 9 9 9 9 9 9 9 9 9 9 9 9 9 9
4 4 5 5 5 5 5 5 5 5 5 5 5 5 6 6 6 6 6 6 6 7 7 7 7 8 8 8 9 9 9 9 9 9 9 9 9 9 9 9 9 9 9
4 4 4 4 4 4 4 4 4 4 4 4 4 4 5 5 5 5 6 6 6 6 6 6 7 7 7 8 8 8 8 8 8 8 8 8 9 8 8 8 8 9 8
3 3 3 3 3 4 4 4 4 4 4 4 4 4 4 4 4 5 5 5 5 5 6 6 6 6 7 7 7 7 8 8 8 8 8 8 8 8 8 8 8 8 8
2 2 3 3 3 3 3 3 3 3 3 3 3 3 3 3 3 3 4 4 5 5 5 5 5 6 6 6 7 7 7 7 7 7 7 7 8 8 8 8 7 8 8
2 2 2 2 2 2 2 2 3 3 2 2 3 3 3 3 3 3 3 4 4 4 4 5 5 5 5 6 6 6 6 7 7 7 7 7 7 7 7 7 7 7 7
1 1 1 1 1 1 2 2 2 2 2 2 2 2 2 2 2 2 2 2 3 4 4 4 5 5 5 5 5 5 6 6 6 6 6 6 7 7 7 7 7 7 7
0 0 0 1 1 1 1 1 1 1 1 2 2 2 1 1 2 2 2 2 2 2 3 4 4 4 5 5 5 5 5 5 6 6 6 6 6 6 6 6 6 6 6
-0 -0 -0 -0 -0 0 0 0 1 1 1 1 1 1 1 1 1 1 1 1 1 1 2 3 3 4 4 4 4 4 4 5 5 5 5 6 6 6 6 6 6 6 6
-1 -1 -1 -1 -1 -0 -0 -0 -0 0 0 0 0 0 0 1 1 1 1 0 1 1 1 2 3 3 3 3 3 4 4 4 4 5 5 5 5 5 6 6 6 5 5
-2 -1 -1 -1 -1 -1 -1 -1 -1 -0 -0 -0 -0 -0 -0 0 0 0 0 0 0 0 0 1 2 2 2 2 3 3 3 4 4 4 4 5 5 5 5 5 5 5 5
-2 -2 -2 -2 -2 -2 -2 -2 -1 -1 -1 -1 -1 -1 -1 -0 -1 -0 -0 -0 -0 -0 -0 0 1 1 2 2 2 2 3 3 3 4 4 4 4 4 4 5 4 4 4
-3 -2 -2 -2 -2 -2 -2 -2 -2 -2 -2 -1 -1 -1 -1 -1 -1 -1 -1 -1 -1 -1 -1 -0 -0 0 1 1 1 2 2 2 3 3 3 4 4 4 4 4 4 4 4
-3 -3 -3 -3 -3 -3 -3 -3 -3 -3 -2 -2 -2 -2 -2 -2 -1 -1 -1 -1 -1 -1 -1 -1 -1 -0 -0 0 1 1 1 2 2 2 2 3 3 3 3 3 3 3 3
-4 -4 -4 -4 -3 -3 -3 -3 -3 -3 -3 -3 -2 -2 -2 -2 -2 -2 -2 -2 -2 -2 -2 -2 -2 -1 -1 -0 -0 0 0 1 1 1 2 2 2 2 2 2 3 3 3
-5 -4 -4 -4 -4 -4 -4 -4 -4 -4 -4 -4 -3 -3 -3 -3 -3 -3 -2 -2 -2 -3 -3 -2 -2 -2 -2 -1 -1 -0 -0 0 0 1 1 1 1 1 1 1 2 2 2
-5 -5 -5 -5 -5 -4 -4 -4 -4 -4 -4 -4 -4 -4 -4 -3 -3 -3 -3 -3 -3 -3 -3 -3 -3 -2 -2 -2 -2 -1 -1 -1 -1 -0 0 0 0 1 1 1 1 1 2
-6 -6 -5 -5 -5 -5 -5 -5 -5 -5 -5 -5 -5 -5 -4 -4 -4 -4 -4 -3 -3 -3 -3 -3 -3 -3 -2 -2 -2 -2 -2 -1 -1 -1 -1 -1 -0 -0 -0 0 0 1 1
-6 -6 -6 -6 -6 -5 -5 -5 -5 -5 -5 -5 -5 -5 -5 -5 -5 -5 -4 -4 -4 -4 -4 -4 -3 -3 -3 -3 -3 -2 -2 -2 -2 -2 -2 -2 -1 -1 -1 -1 -0 -0 -0
-7 -7 -7 -6 -6 -6 -6 -6 -6 -6 -6 -6 -6 -6 -6 -5 -5 -5 -5 -5 -5 -4 -4 -4 -4 -4 -4 -3 -3 -3 -3 -3 -3 -3 -2 -2 -2 -2 -1 -1 -1 -1 -1
-7 -7 -7 -7 -7 -7 -6 -6 -7 -7 -7 -6 -6 -6 -6 -6 -6 -6 -6 -5 -5 -5 -5 -4 -4 -4 -4 -4 -4 -4 -4 -4 -4 -4 -3 -3 -3 -3 -3 -2 -2 -2 -2
Wind_Speed
2 2 2 2 2 2 2 1 0 1 1 1 1 1 1 1 0 0 1 2 1 1 1 2 2 3 3 4 4 5 7 7 8 8 9 9 9 8 8 8 8 7 7
2 1 1 2 2 2 2 1 0 0 0 0 0 0 0 0 0 0 0 0 1 0 1 2 3 3 4 4 5 5 6 6 7 9 9 9 8 8 7 7 7 7 7
2 1 1 1 2 2 2 1 1 0 1 1 0 0 0 0 1 1 1 1 0 1 1 1 3 3 4 4 5 5 6 7 7 8 9 9 8 8 7 6 6 7 6
1 1 0 1 1 1 1 1 1 1 1 1 1 1 0 0 1 1 1 1 1 1 1 1 1 2 2 4 5 5 5 7 7 8 9 9 9 8 7 6 6 6 6
0 0 0 0 1 1 1 1 1 1 2 1 1 1 1 1 1 1 1 1 1 1 2 1 1 0 2 3 4 5 6 6 7 8 8 9 9 9 8 7 6 6 5
0 1 0 1 1 1 1 1 2 1 1 1 1 1 2 2 1 1 2 1 1 2 2 2 2 1 1 2 3 5 6 6 6 7 8 8 8 9 9 8 7 5 5
1 1 1 1 1 2 2 2 2 2 1 1 1 1 2 2 2 2 2 2 2 2 2 2 2 2 1 1 2 3 4 5 6 7 8 7 8 8 8 8 7 6 5
1 1 1 2 2 2 2 2 2 2 2 2 1 2 2 3 2 2 2 2 2 2 2 2 2 2 2 1 1 2 3 3 3 6 8 8 8 8 8 8 8 7 6
2 2 2 2 3 3 3 3 3 4 3 2 2 2 2 3 1 2 2 2 2 2 3 2 3 3 3 2 2 2 3 3 3 4 6 8 8 8 8 8 8 8 7
2 3 3 3 2 2 3 4 4 4 4 3 3 2 3 2 2 2 2 2 2 3 3 3 3 4 4 3 3 2 3 3 3 4 6 7 7 7 8 9 8 8 7
3 3 3 3 3 3 3 4 4 5 5 4 3 3 3 3 4 3 3 3 2 3 3 4 3 3 3 4 4 3 3 3 4 4 5 6 7 7 6 8 8 7 7
3 3 4 4 4 4 4 4 4 5 6 6 5 4 4 3 3 3 4 4 4 3 4 4 4 3 3 3 3 3 4 4 4 4 5 6 7 7 7 6 7 8 7
3 4 4 4 4 5 5 5 5 5 6 7 7 6 5 5 4 4 4 4 4 3 3 3 3 3 2 2 2 3 4 4 5 5 5 6 7 6 7 6 6 6 7
4 5 6 6 6 6 6 6 5 6 5 6 7 7 6 5 5 4 4 4 4 4 4 4 2 3 2 2 3 3 4 5 5 5 5 6 7 6 7 7 6 6 7
5 6 6 6 6 6 6 6 5 6 6 6 6 7 6 6 5 5 5 5 5 5 5 4 3 3 3 3 4 5 5 5 6 6 6 6 7 7 6 7 7 7 7
6 6 6 6 6 6 7 6 6 6 6 6 6 7 7 6 6 5 5 6 6 7 6 4 3 3 4 4 4 5 5 5 6 7 7 6 6 7 7 7 8 8 7
6 6 7 7 7 7 7 7 7 7 7 7 7 7 8 7 6 6 5 6 6 6 7 5 4 4 5 4 4 4 5 5 6 7 7 7 7 8 8 8 8 8 8
6 7 7 7 7 7 7 7 8 8 8 8 8 8 8 7 8 6 6 7 6 7 6 7 5 4 5 4 4 4 4 5 6 7 8 8 8 8 8 8 8 9 8
7 7 7 7 7 7 7 8 8 8 9 9 8 9 8 8 8 7 7 7 6 6 6 6 5 4 4 4 3 3 4 4 5 6 8 8 9 9 8 8 8 8 9
7 7 7 7 8 8 8 8 8 9 9 9 8 8 8 9 9 8 7 8 7 7 6 6 5 5 5 4 4 3 3 4 4 4 5 6 7 8 9 8 9 9 9
7 7 7 7 7 7 7 8 8 8 8 8 8 8 8 9 9 8 7 7 7 7 7 7 6 6 5 5 5 4 4 4 4 4 3 4 5 5 6 8 8 9 9
7 7 7 7 7 6 9 10 9 8 7 8 8 8 8 9 10 11 11 10 9 8 8 7 7 8 8 7 6 5 4 4 4 3 3 4 4 4 5 5 7 8 10
7 7 7 7 7 8 10 10 10 7 7 7 8 7 7 7 9 8 9 11 11 11 10 9 9 9 8 7 7 7 7 6 5 3 3 4 4 5 5 5 7 8 9
7 7 7 7 7 8 9 9 9 8 7 7 8 8 8 8 7 8 7 8 8 9 10 9 9 8 7 7 7 7 6 4 3 4 4 4 4 4 4 5 7 8 8
7 7 7 7 7 7 8 8 8 6 6 7 7 7 8 8 9 9 8 8 8 8 9 10 10 10 10 11 9 5 5 5 4 4 4 3 3 3 4 4 5 7 8
7 7 6 6 7 7 7 8 8 5 6 6 6 7 9 10 10 10 9 8 9 7 6 6 7 8 9 9 10 9 7 7 4 4 4 4 3 2 2 3 4 4 5
Wind_Direction
59 47 33 25 18 12 3 7 96 96 96 108 111 122 104 85 103 148 108 74 60 245 244 217 191 183 172 166 159 158 161 163 159 152 146 139 132 127 124 121 118 115 115
70 50 25 18 14 0 344 337 348 140 166 122 104 105 134 143 172 244 224 116 42 312 241 225 211 207 196 186 180 169 170 165 163 158 152 144 139 135 133 131 128 122 119
64 66 38 4 360 348 339 331 338 185 183 181 196 334 316 252 223 250 267 243 221 16 346 247 223 213 211 198 193 188 182 175 168 163 159 154 146 141 139 140 142 137 130
65 60 67 342 332 324 307 270 277 255 228 227 244 294 290 273 253 254 256 262 253 259 303 333 275 214 211 213 206 199 190 184 179 175 172 167 161 157 153 149 145 146 145
26 21 108 268 269 267 259 254 252 254 237 234 252 279 281 267 272 256 245 267 273 277 272 270 301 306 219 222 214 207 194 185 182 177 173 172 174 170 164 155 144 142 144
309 327 232 219 236 226 239 247 245 241 237 223 234 264 273 266 256 250 243 244 268 266 270 263 241 246 222 230 225 212 202 193 186 181 176 173 171 173 171 167 162 154 148
284 299 304 231 234 231 233 235 231 220 229 233 236 248 253 235 234 242 242 236 240 246 253 263 252 240 226 218 230 216 205 200 192 191 183 180 181 177 174 175 174 173 174
257 261 275 255 231 234 230 225 221 229 237 240 243 231 226 218 211 244 252 245 247 243 239 247 248 243 231 228 181 203 207 198 199 200 192 190 189 190 185 183 184 184 183
239 251 251 251 228 225 225 229 229 229 232 240 256 242 230 227 257 226 241 251 262 258 247 253 252 243 232 219 219 192 193 205 206 214 203 197 193 194 192 191 190 189 190
243 244 246 243 240 235 235 235 235 239 230 231 238 260 268 270 234 229 223 228 262 268 266 264 258 250 237 220 216 225 194 201 223 235 225 206 196 194 198 198 197 193 190
246 243 245 247 244 245 244 242 237 234 231 233 235 242 243 250 241 236 240 244 261 266 272 272 263 250 240 227 215 211 204 212 225 237 227 214 198 191 188 196 192 190 190
254 249 246 247 247 247 247 245 242 238 237 236 236 236 235 236 234 236 249 248 254 264 269 262 257 249 236 231 226 204 203 215 221 227 229 221 200 195 191 194 200 196 197
257 255 257 251 249 248 247 244 242 242 242 240 237 237 238 241 247 247 254 260 268 273 257 249 241 247 243 234 223 209 204 209 219 224 228 224 204 202 199 200 202 202 205
258 261 254 254 252 249 245 242 243 242 243 242 241 240 239 238 238 237 242 250 262 260 243 241 238 231 233 238 244 235 211 204 217 227 236 234 211 204 204 202 203 207 211
265 262 256 254 253 250 245 242 243 242 245 244 245 246 245 239 236 237 237 236 239 246 245 233 229 221 225 242 249 245 236 216 216 226 232 229 211 205 204 205 209 210 213
262 259 256 253 250 249 247 242 244 243 243 243 244 244 247 244 237 234 232 237 240 247 251 246 254 259 244 242 252 250 240 232 223 220 222 218 210 210 210 210 211 210 215
263 258 256 255 252 248 245 242 241 240 241 242 241 242 245 245 242 235 231 232 236 239 246 258 263 263 256 249 248 244 241 234 226 222 224 215 216 218 215 213 215 212 217
267 261 258 256 254 253 248 242 241 240 239 241 240 241 243 242 241 238 233 232 234 236 239 248 254 254 256 252 248 244 243 236 230 228 226 218 219 219 217 215 219 220 221
267 263 257 254 253 252 251 247 243 243 243 243 241 240 241 239 237 234 234 234 234 233 234 239 248 253 255 246 252 257 253 243 237 231 223 218 219 219 217 219 222 225 223
270 264 260 258 257 254 250 249 247 246 246 244 241 240 239 237 237 235 233 233 233 233 233 234 237 242 245 241 238 241 254 248 246 229 221 219 219 216 218 221 224 226 225
277 270 265 263 261 256 250 251 252 249 243 243 242 239 239 240 241 236 234 230 228 230 231 231 232 238 235 226 230 234 245 252 255 227 215 216 218 219 218 217 221 222 225
279 272 264 263 262 258 258 255 255 247 246 243 242 240 239 238 236 235 239 238 234 230 229 231 234 233 234 234 234 229 236 243 253 214 225 237 223 229 226 224 222 227 230
281 274 268 266 265 264 263 261 254 246 245 244 242 240 240 237 235 234 235 236 237 238 238 237 238 239 237 232 230 230 230 234 248 233 233 243 237 242 237 232 228 234 235
282 278 276 271 269 268 267 263 260 247 247 246 243 240 241 240 234 230 231 234 238 239 239 239 243 246 244 237 230 234 244 249 263 247 219 238 238 246 244 241 228 230 236
285 281 279 275 272 273 264 264 266 254 250 250 247 242 240 242 235 229 230 235 240 243 237 236 242 243 242 238 230 227 223 222 242 239 222 224 236 256 258 247 228 223 233
282 283 279 276 271 272 270 265 264 254 250 250 247 242 239 240 239 234 233 234 237 240 238 239 241 242 237 231 228 226 221 219 227 234 212 207 224 236 255 248 233 230 234
Height
1531 1531 1532 1532 1532 1532 1532 1533 1533 1533 1534 1535 1535 1536 1536 1537 1538 1539 1539 1540 1541 1542 1543 1545 1545 1546 1548 1548 1549 1550 1551 1552 1553 1554 1555 1556 1557 1557 1558 1559 1559 1560 1560
1529 1529 1529 1529 1529 1530 1530 1531 1531 1531 1532 1532 1533 1533 1534 1534 1535 1536 1537 1538 1539 1540 1541 1542 1543 1544 1546 1547 1548 1549 1550 1551 1551 1552 1553 1555 1555 1556 1557 1558 1559 1559 1559
1526 1526 1526 1527 1527 1527 1527 1528 1528 1529 1529 1530 1530 1531 1531 1532 1533 1534 1535 1535 1536 1537 1538 1540 1541 1542 1543 1544 1545 1547 1548 1549 1550 1551 1552 1553 1554 1555 1556 1557 1558 1558 1558
1524 1524 1523 1524 1524 1524 1524 1525 1526 1526 1527 1527 1527 1528 1529 1529 1530 1531 1532 1533 1534 1534 1535 1537 1538 1539 1540 1542 1543 1544 1545 1547 1548 1549 1550 1551 1552 1553 1554 1555 1556 1557 1557
1520 1520 1521 1521 1521 1521 1522 1522 1523 1523 1524 1524 1525 1525 1526 1526 1527 1528 1529 1530 1531 1532 1533 1534 1535 1536 1537 1539 1540 1542 1543 1544 1545 1547 1548 1549 1551 1552 1553 1554 1555 1555 1556
1517 1517 1517 1518 1518 1518 1519 1519 1520 1520 1521 1521 1522 1522 1523 1523 1524 1524 1525 1526 1527 1528 1529 1530 1532 1533 1534 1536 1537 1539 1540 1542 1543 1544 1545 1547 1549 1550 1551 1551 1552 1553 1554
1514 1514 1514 1514 1515 1515 1516 1516 1516 1517 1518 1519 1519 1520 1520 1520 1521 1521 1522 1523 1524 1525 1526 1527 1528 1529 1531 1532 1534 1536 1537 1539 1540 1541 1543 1545 1546 1547 1548 1549 1550 1551 1552
1510 1510 1510 1510 1511 1512 1512 1513 1513 1513 1514 1515 1517 1517 1518 1519 1518 1518 1519 1520 1521 1522 1523 1524 1525 1526 1527 1529 1530 1532 1534 1536 1537 1538 1539 1541 1543 1544 1545 1547 1548 1549 1550
1507 1507 1507 1507 1507 1508 1508 1509 1510 1511 1511 1512 1513 1515 1516 1515 1515 1515 1515 1516 1517 1518 1519 1520 1521 1522 1524 1525 1526 1528 1530 1532 1533 1535 1536 1537 1539 1541 1542 1543 1545 1546 1547
1503 1503 1503 1504 1504 1504 1505 1506 1506 1507 1508 1509 1510 1510 1512 1512 1513 1512 1513 1513 1514 1514 1516 1517 1518 1519 1520 1521 1522 1524 1526 1527 1529 1531 1532 1533 1534 1536 1538 1540 1541 1543 1544
1500 1500 1500 1500 1500 1501 1501 1502 1502 1503 1504 1505 1506 1506 1507 1508 1509 1510 1509 1510 1510 1511 1511 1512 1513 1515 1516 1517 1518 1519 1521 1523 1525 1526 1528 1529 1530 1532 1534 1536 1537 1539 1540
1496 1496 1496 1496 1496 1497 1497 1498 1498 1499 1500 1501 1502 1503 1503 1504 1505 1506 1506 1506 1506 1506 1507 1508 1509 1510 1511 1513 1514 1515 1517 1519 1520 1522 1524 1525 1527 1528 1529 1532 1533 1535 1536
1491 1491 1492 1492 1492 1493 1493 1493 1494 1495 1495 1496 1497 1498 1499 1500 1501 1502 1503 1503 1503 1502 1503 1504 1505 1506 1507 1508 1510 1511 1513 1514 1516 1518 1520 1521 1523 1524 1526 1527 1529 1531 1532
1487 1487 1487 1488 1488 1488 1489 1489 1489 1490 1490 1491 1492 1493 1494 1495 1496 1498 1499 1500 1499 1499 1499 1500 1501 1502 1503 1504 1505 1507 1508 1510 1511 1513 1515 1517 1518 1520 1522 1523 1525 1526 1528
1483 1483 1483 1483 1483 1484 1484 1484 1484 1485 1486 1486 1487 1488 1489 1490 1491 1493 1494 1496 1497 1496 1496 1496 1497 1498 1499 1500 1501 1502 1503 1505 1507 1509 1510 1512 1513 1515 1517 1519 1521 1522 1524
1479 1478 1478 1479 1479 1479 1479 1479 1480 1480 1481 1481 1482 1483 1484 1485 1486 1487 1489 1490 1491 1493 1492 1491 1492 1493 1494 1495 1496 1498 1499 1501 1502 1504 1506 1507 1508 1510 1513 1514 1516 1518 1519
1474 1474 1474 1474 1474 1474 1474 1474 1475 1475 1476 1476 1477 1478 1479 1480 1481 1482 1483 1485 1486 1487 1487 1487 1488 1489 1490 1491 1492 1493 1495 1496 1497 1499 1500 1502 1504 1505 1507 1509 1511 1512 1514
1469 1469 1469 1468 1468 1468 1468 1469 1469 1470 1471 1471 1471 1472 1473 1474 1475 1476 1477 1479 1480 1481 1482 1482 1483 1484 1485 1486 1487 1488 1490 1491 1492 1494 1495 1497 1498 1500 1501 1503 1505 1507 1509
1464 1464 1463 1463 1463 1463 1463 1463 1464 1464 1465 1465 1465 1466 1468 1469 1470 1471 1472 1473 1475 1476 1477 1478 1478 1479 1480 1481 1483 1483 1485 1486 1487 1489 1490 1491 1493 1494 1496 1498 1499 1501 1503
1459 1459 1458 1458 1458 1457 1457 1458 1458 1459 1459 1459 1460 1461 1462 1463 1464 1465 1467 1468 1469 1471 1472 1473 1473 1474 1475 1476 1478 1479 1480 1481 1482 1483 1484 1486 1488 1489 1491 1492 1494 1496 1497
1454 1454 1453 1453 1452 1452 1452 1452 1452 1453 1453 1453 1454 1455 1456 1457 1459 1460 1461 1463 1464 1465 1466 1467 1468 1469 1470 1471 1473 1474 1475 1476 1477 1478 1479 1480 1482 1484 1485 1486 1488 1490 1491
1450 1449 1448 1447 1447 1447 1447 1447 1447 1447 1447 1448 1448 1449 1450 1451 1453 1454 1456 1457 1459 1460 1461 1462 1462 1464 1465 1467 1468 1469 1470 1471 1471 1473 1473 1475 1476 1478 1479 1481 1482 1484 1486
1445 1444 1443 1442 1441 1441 1441 1441 1441 1442 1442 1442 1443 1444 1444 1446 1447 1448 1450 1451 1452 1454 1456 1457 1457 1458 1460 1461 1463 1464 1465 1465 1465 1466 1468 1468 1471 1472 1474 1475 1477 1478 1479
1440 1439 1438 1437 1436 1436 1436 1436 1437 1437 1437 1437 1437 1438 1439 1440 1441 1443 1444 1445 1446 1448 1449 1450 1452 1452 1454 1456 1457 1459 1459 1460 1460 1461 1463 1464 1465 1467 1468 1469 1471 1472 1473
1435 1434 1433 1432 1432 1431 1431 1432 1432 1432 1431 1432 1432 1433 1434 1435 1436 1438 1439 1440 1441 1442 1443 1444 1445 1446 1448 1450 1451 1453 1454 1455 1455 1456 1458 1459 1460 1461 1462 1463 1465 1466 1468
1431 1429 1428 1428 1427 1427 1427 1427 1427 1427 1427 1427 1427 1427 1428 1429 1431 1432 1434 1434 1435 1436 1437 1438 1439 1440 1442 1444 1445 1447 1449 1450 1450 1451 1452 1454 1455 1456 1457 1457 1459 1461 1462